Theta_e
326 324 324 324 324 324 324 324 324 322 325 323 324 323 322 322 321 320 318 316 313 307 305 303 303 303 303 308 308 306 309 313 316 317 317 317 318 317 316 315 316 317 317 317 317 317 317
324 326 325 324 324 324 323 323 324 324 322 322 322 322 320 319 319 317 314 310 306 303 303 302 303 303 304 308 306 305 305 310 314 315 315 316 317 316 316 317 318 317 317 317 316 315 315
315 317 317 318 321 322 323 322 320 322 321 321 320 320 319 317 315 311 307 305 303 301 301 302 302 302 303 306 305 305 306 307 310 311 314 314 314 314 316 317 315 315 316 316 315 314 315
313 313 314 314 316 315 315 315 314 314 314 315 314 315 314 312 309 306 303 301 301 300 300 301 302 302 307 304 305 305 305 307 308 309 313 314 315 316 316 315 315 316 315 315 315 314 314
313 313 312 314 313 314 313 313 313 310 308 308 308 308 308 307 304 301 300 300 300 300 301 301 303 305 308 305 305 305 305 308 308 309 313 316 315 315 314 316 316 316 314 315 314 313 314
311 312 312 312 311 311 311 310 310 309 307 307 307 306 305 303 300 299 299 299 300 300 301 302 307 306 305 307 309 309 309 310 312 310 313 314 315 316 316 317 315 314 315 315 314 315 314
308 311 313 311 311 309 309 310 309 308 308 306 306 306 304 302 299 299 299 301 306 309 307 307 309 307 308 309 310 313 312 313 312 312 313 315 316 316 316 316 315 314 313 314 314 315 315
306 306 309 312 311 310 307 306 307 308 307 308 308 306 303 300 299 299 301 307 306 309 308 307 305 307 306 309 312 313 312 313 313 313 314 316 315 315 315 315 315 314 315 315 314 315 315
304 305 305 307 312 310 309 308 307 307 308 306 306 305 303 299 299 299 301 306 304 304 308 307 307 307 307 306 307 311 313 314 314 313 315 313 315 314 315 315 314 315 315 314 314 315 315
303 304 304 305 307 310 308 308 308 307 307 305 305 305 301 299 299 304 305 301 303 303 308 307 308 309 308 307 308 307 313 312 314 312 313 314 313 314 315 314 315 313 314 314 314 315 316
300 302 304 304 305 309 308 307 307 307 306 305 305 304 301 298 302 304 302 300 306 306 307 307 309 309 310 306 310 309 310 313 312 314 314 314 315 315 315 314 314 313 314 314 314 316 316
296 299 301 303 304 305 307 306 306 305 305 304 304 303 300 300 302 305 305 302 308 308 305 310 311 312 311 309 313 311 308 311 311 314 314 313 312 313 314 314 314 314 314 315 316 315 316
295 296 296 299 302 304 304 306 305 304 305 303 302 302 299 300 300 307 307 308 309 308 304 310 313 313 313 311 314 312 310 311 313 314 314 313 313 313 313 314 314 315 315 316 315 317 314
294 297 296 295 297 302 304 303 306 305 305 303 302 300 299 299 298 307 309 310 307 304 304 309 313 314 313 312 314 312 312 312 312 312 314 315 315 314 313 313 314 315 315 315 313 313 314
294 294 296 296 296 297 301 303 304 304 305 304 301 301 300 300 298 305 307 310 305 304 304 306 314 314 314 313 312 314 314 313 313 312 311 313 311 313 314 313 314 315 316 314 315 314 317
294 294 294 297 296 295 298 301 303 304 305 305 301 302 302 301 299 304 306 306 306 306 307 307 309 310 311 314 313 315 314 314 312 312 313 313 311 313 314 313 314 315 315 317 317 316 316
293 293 293 293 296 296 296 298 302 304 305 304 301 301 302 301 300 301 306 305 305 306 308 309 306 307 307 311 313 313 313 313 313 313 312 313 313 314 315 316 314 315 317 316 316 316 316
293 293 293 292 293 296 295 297 299 302 304 303 300 303 301 300 301 301 305 305 304 305 306 307 309 310 309 311 311 312 311 311 312 313 314 313 314 314 314 314 314 315 314 315 318 317 318
293 293 293 293 293 294 295 296 297 300 301 301 300 301 301 300 304 303 303 304 305 305 306 306 307 308 309 310 310 310 311 311 312 312 314 314 316 316 314 314 314 315 315 314 315 315 317
292 293 292 292 293 294 295 296 297 300 301 301 300 303 301 302 302 303 303 303 304 304 305 306 307 308 308 308 309 309 309 311 310 312 311 312 313 314 314 313 315 317 315 315 315 318 316
292 292 292 292 293 293 295 296 296 301 301 299 299 301 301 302 303 303 304 303 303 304 303 305 306 307 308 307 307 308 308 308 309 308 309 310 310 309 310 311 311 313 313 313 314 315 316
292 292 292 293 294 293 295 295 296 299 299 299 298 301 300 303 302 303 304 304 303 303 304 305 305 305 305 306 306 306 307 308 308 309 310 311 309 309 309 309 309 309 310 310 311 312 312
292 292 292 293 294 294 294 296 297 298 299 298 298 300 301 302 304 304 305 304 304 305 304 304 305 306 307 307 306 306 307 307 308 309 309 310 310 310 310 308 310 312 311 311 311 311 312
292 292 293 293 294 294 294 296 297 300 299 299 299 300 302 303 305 304 303 303 303 303 304 303 304 306 305 305 305 305 306 306 307 308 307 309 309 309 310 310 312 310 309 310 310 311 311
291 292 293 293 294 295 295 297 297 299 299 299 299 299 300 303 303 303 303 303 302 303 303 303 303 304 304 304 304 305 305 305 306 306 306 307 308 309 309 308 308 308 308 310 311 310 310
292 293 294 294 294 296 296 298 297 297 297 299 299 299 299 302 302 301 303 303 304 304 304 303 303 303 303 304 304 304 304 305 305 307 306 306 307 309 308 308 308 311 308 307 307 310 308
293 293 293 295 294 295 296 296 297 297 298 297 298 298 297 299 299 300 302 302 301 302 303 302 302 303 302 304 304 304 304 303 305 305 307 307 307 307 309 308 307 308 306 305 309 310 306
292 291 292 293 295 297 296 297 296 296 296 296 296 296 297 298 298 299 300 301 301 301 303 302 303 303 303 304 303 303 304 304 304 307 304 306 307 309 309 308 309 305 305 305 308 302 304
290 290 291 291 293 295 295 295 295 295 295 295 296 295 295 297 298 298 298 299 301 301 301 301 301 303 303 304 304 304 305 305 305 306 305 307 309 309 308 308 305 304 304 301 301 303 302
Wind_Speed
35 36 37 36 36 36 33 31 31 30 27 27 26 24 26 24 24 24 23 23 22 19 19 18 18 17 15 7 9 12 9 9 8 5 4 3 4 4 7 3 5 8 3 4 5 8 10
19 32 36 38 38 38 35 34 35 33 30 29 28 26 27 26 24 23 23 22 19 17 17 16 16 16 11 13 13 12 12 13 12 5 4 3 4 3 4 4 7 1 3 8 9 11 9
23 22 9 11 22 28 36 36 30 33 31 29 27 26 25 24 22 21 21 21 18 16 15 15 16 15 15 18 16 12 12 13 14 8 5 4 5 6 5 4 3 3 7 7 4 3 3
20 21 23 22 21 12 13 15 16 17 18 20 22 23 23 22 20 20 19 18 16 15 14 14 15 12 11 14 14 13 16 12 11 7 7 7 5 5 6 2 3 7 5 6 6 4 2
21 24 20 16 15 18 20 23 24 21 17 15 19 18 19 19 18 17 17 16 14 14 13 12 10 6 10 10 9 12 14 10 13 12 7 7 6 5 5 9 6 7 7 6 5 2 2
22 22 24 26 23 21 20 19 19 20 19 16 18 19 18 17 16 15 14 14 13 12 9 9 11 6 11 2 3 5 9 12 5 15 10 8 7 8 7 9 8 4 7 6 8 7 7
25 23 31 29 26 23 24 22 20 22 21 19 16 18 18 15 15 14 12 7 5 6 10 11 5 4 1 4 6 5 11 11 14 14 9 15 8 13 11 12 8 6 8 11 10 6 8
23 28 26 26 26 27 25 24 22 23 23 24 24 21 18 15 14 14 13 7 7 4 8 15 21 19 16 4 4 9 14 11 11 9 9 7 14 13 1 5 8 9 11 13 8 2 7
22 21 25 27 31 28 26 27 24 25 22 21 22 22 17 14 14 16 16 10 9 5 6 9 13 15 14 19 11 15 20 10 9 11 15 13 3 4 12 9 11 9 11 10 10 9 13
20 21 23 24 29 29 27 25 25 25 23 21 21 19 19 16 13 13 14 15 11 2 5 7 8 7 12 10 9 18 20 11 8 14 10 9 7 8 12 13 10 11 4 7 7 6 5
24 18 19 23 27 25 27 26 26 27 25 24 23 20 18 20 10 14 11 14 13 3 6 8 6 5 8 18 6 9 20 13 14 9 7 5 10 13 12 10 10 4 3 4 5 8 8
22 27 17 18 24 28 25 26 26 27 28 28 27 25 21 20 16 11 11 19 11 3 10 6 6 9 9 12 6 8 14 11 11 8 6 5 2 6 4 4 10 7 6 4 5 5 7
19 19 27 33 17 24 30 28 29 30 31 31 31 27 25 23 17 18 22 19 5 9 4 7 7 9 13 10 9 9 16 16 10 9 13 13 13 6 10 9 7 11 7 3 5 5 6
20 21 22 22 34 28 19 33 30 33 34 34 32 29 27 24 19 24 27 7 8 12 16 2 4 10 9 15 8 10 15 13 13 7 8 10 7 19 15 18 7 15 12 6 6 7 7
20 23 23 23 25 30 28 25 33 34 38 39 36 32 29 27 24 28 19 10 15 16 4 7 9 9 8 10 6 10 13 9 12 15 6 7 5 8 4 6 12 7 9 13 15 12 9
19 21 25 24 25 24 37 29 35 34 40 40 39 36 28 26 24 24 7 17 13 4 3 7 12 6 11 13 10 12 12 8 6 17 12 4 5 9 7 9 11 10 10 4 5 7 14
19 21 24 25 25 26 28 40 29 33 35 49 35 16 22 31 27 10 10 21 20 10 3 2 6 5 4 6 8 8 5 5 5 6 16 7 7 8 9 12 15 9 11 8 5 9 10
21 22 24 25 28 26 27 32 36 25 39 43 22 5 27 39 11 9 15 29 21 14 15 3 2 1 6 6 7 8 9 2 3 8 8 12 6 13 17 12 13 18 17 18 11 12 7
20 24 25 25 27 30 28 27 31 30 29 44 16 8 33 43 10 13 26 26 24 15 8 9 7 6 4 5 5 7 5 3 2 4 7 8 7 11 16 7 10 14 20 18 19 15 16
21 24 26 25 26 28 30 29 22 36 30 45 14 4 11 27 24 20 27 23 26 20 10 5 3 7 7 10 7 4 8 3 3 2 3 0 8 11 13 5 2 4 10 14 17 10 15
22 25 26 24 27 28 28 26 22 26 29 37 9 5 8 11 16 21 22 17 22 24 22 14 9 12 10 7 9 12 13 11 11 10 7 6 14 15 19 18 17 17 18 18 21 21 18
23 24 25 26 26 27 29 27 26 34 37 27 8 6 2 23 28 21 20 23 22 24 15 21 18 14 18 16 15 11 14 15 15 7 10 5 11 13 21 19 19 21 24 25 24 25 24
23 24 26 27 28 26 31 31 31 37 44 12 14 20 18 18 18 17 18 24 25 16 16 22 16 15 13 18 20 21 14 13 10 10 10 7 7 10 18 16 17 16 25 25 27 23 22
24 24 25 27 27 27 28 23 24 47 51 24 29 22 7 9 14 21 24 25 22 18 18 14 15 13 9 3 2 5 9 14 16 16 18 13 11 9 12 7 15 15 6 11 17 20 23
22 23 24 27 25 24 25 20 24 36 39 18 30 17 5 5 16 16 20 18 19 15 9 16 12 9 8 7 4 4 6 4 11 20 20 18 16 7 9 14 19 21 9 5 9 18 16
17 16 18 23 26 25 24 24 27 35 34 23 24 22 6 5 9 8 17 13 10 10 8 12 12 11 5 4 4 6 7 8 5 4 6 18 19 14 15 17 20 17 15 8 5 12 12
10 10 15 7 16 19 27 23 26 24 26 22 19 16 4 7 7 11 6 11 13 10 6 8 12 11 17 7 8 9 13 9 10 12 5 4 7 17 16 17 13 9 6 11 8 5 1
5 7 11 10 11 22 28 24 26 24 22 20 15 14 8 6 8 10 11 10 14 17 8 9 7 6 9 8 6 7 8 11 14 13 16 11 7 7 13 10 11 11 11 8 0 1 4
7 4 5 8 11 15 25 24 23 23 21 20 13 13 12 6 5 8 11 12 10 9 13 14 6 7 10 7 8 6 7 5 14 14 11 9 11 8 8 3 3 20 2 7 3 3 7
Wind_Direction
249 247 246 244 242 244 242 241 240 249 240 253 256 262 273 276 277 277 280 282 284 289 290 293 297 301 309 278 256 262 238 211 193 174 151 185 222 222 244 247 229 238 238 244 249 279 281
230 229 240 242 239 237 236 242 237 238 247 250 254 257 265 273 272 272 274 276 281 282 284 288 290 296 298 266 261 257 234 227 222 208 205 200 226 223 240 232 243 96 264 272 275 278 288
287 282 282 199 207 224 225 223 224 228 233 242 249 255 263 266 266 268 270 272 276 278 279 280 284 290 282 261 266 252 232 221 226 215 224 227 214 223 169 201 228 259 274 252 249 160 146
283 286 283 277 263 239 229 219 235 243 254 252 252 251 255 258 260 261 263 268 271 273 274 274 280 286 264 265 256 249 234 221 219 202 173 160 154 195 224 181 201 253 266 253 134 219 132
262 270 272 252 250 253 251 257 260 254 254 270 269 254 252 251 252 254 259 264 269 268 268 273 280 259 266 267 249 241 224 210 219 196 162 164 168 216 197 223 224 196 263 237 193 188 167
254 255 256 258 258 255 257 263 275 266 255 254 259 259 251 246 245 245 249 256 272 281 271 280 256 259 240 201 193 202 185 173 169 166 157 172 196 223 216 213 263 275 235 207 257 149 283
259 248 249 253 254 249 252 248 251 253 252 252 253 253 256 241 238 238 234 253 250 249 223 206 238 256 269 227 192 185 166 148 138 164 182 186 207 220 227 228 280 281 269 268 269 262 289
262 259 258 248 248 248 246 250 252 248 248 245 246 254 246 238 233 227 215 215 227 230 291 248 245 250 240 195 197 188 171 182 185 199 163 172 224 245 192 201 225 247 265 268 285 271 277
264 264 258 258 245 240 239 242 241 244 235 246 234 229 224 224 228 227 221 218 223 263 263 253 228 236 234 218 226 204 183 202 210 198 201 234 104 267 198 205 222 230 255 276 280 310 261
269 264 264 256 252 243 247 241 237 232 230 229 227 219 204 204 220 219 223 211 205 190 268 200 208 226 195 181 226 211 202 205 210 227 201 233 214 195 196 219 214 249 232 260 264 277 278
275 265 255 259 255 254 239 234 232 224 219 218 213 216 206 197 197 195 213 188 187 157 273 107 151 167 183 189 120 184 194 210 222 183 185 140 177 201 214 212 197 266 162 237 266 268 297
280 267 281 249 255 257 249 231 226 224 219 218 215 209 198 200 206 191 192 166 155 159 237 166 144 175 165 199 178 123 181 201 214 192 226 265 153 198 207 153 196 136 172 199 241 279 257
285 284 278 271 266 249 251 237 224 222 215 217 210 209 200 197 203 167 156 150 154 214 120 172 178 178 197 176 172 174 176 181 177 182 203 198 207 173 172 159 166 190 195 252 245 212 266
272 284 289 279 279 253 252 246 232 221 217 210 207 200 190 194 186 170 166 189 212 221 214 60 166 172 194 162 184 171 172 188 212 219 152 193 194 202 196 217 199 205 208 233 257 261 276
277 269 279 280 274 271 265 256 243 229 223 207 194 193 195 190 182 177 177 207 216 230 210 184 163 191 182 191 188 174 190 204 200 205 218 194 210 171 196 191 182 169 220 244 262 261 271
276 274 263 274 270 269 257 264 240 235 228 208 192 187 195 188 190 181 202 216 226 206 224 222 208 223 192 181 187 199 181 181 201 204 228 196 221 195 144 161 208 218 151 171 213 239 242
276 274 273 264 266 263 259 257 238 230 221 210 191 183 195 179 187 200 207 218 222 218 233 238 210 187 194 163 209 198 168 129 212 197 212 202 235 163 164 208 188 190 204 225 255 248 266
278 278 275 271 266 261 254 251 255 230 223 202 179 176 175 173 151 203 209 214 217 217 232 257 326 254 187 157 175 203 211 235 134 158 181 208 248 236 214 221 242 222 226 218 229 223 243
275 280 277 271 266 260 259 252 263 251 226 181 180 166 172 170 170 193 223 225 233 224 222 205 229 238 168 182 189 211 178 96 164 191 185 177 212 236 240 225 219 232 236 243 236 253 249
278 276 277 271 266 256 251 243 257 235 237 184 161 145 159 188 191 191 205 219 221 222 245 194 229 218 202 219 222 207 209 137 128 111 49 146 245 246 254 286 32 204 252 241 245 240 253
277 277 277 269 268 261 250 241 256 229 188 169 149 169 179 170 196 202 201 206 216 214 217 216 227 231 214 229 226 233 239 246 261 248 242 243 260 266 266 268 270 253 247 243 240 241 246
279 274 273 271 264 258 250 240 236 224 209 189 143 127 205 160 183 200 201 214 207 209 188 207 226 233 229 235 232 236 238 240 240 213 236 230 261 263 263 262 262 262 257 258 258 259 259
281 276 273 270 263 253 240 238 231 221 201 186 159 172 166 170 184 197 204 213 214 208 208 230 227 238 231 230 243 254 268 260 256 246 230 238 240 240 258 258 257 256 248 253 256 254 251
281 278 276 267 268 246 244 239 237 199 188 181 165 148 163 174 181 196 206 218 234 231 235 219 231 239 227 209 282 245 251 255 253 250 247 239 239 248 262 279 236 250 280 273 254 249 247
279 281 280 274 254 238 236 224 236 192 189 168 166 161 163 157 193 195 204 210 211 209 228 226 214 230 187 194 230 239 222 238 240 240 232 229 242 249 244 251 261 274 236 215 194 248 246
278 282 292 270 230 219 220 213 197 187 187 181 159 166 149 141 194 188 179 183 194 202 204 227 233 232 229 228 201 237 231 225 207 208 253 233 229 234 243 249 258 268 278 180 178 266 228
276 315 321 202 243 220 207 196 170 170 183 187 182 167 120 100 145 156 167 196 200 200 225 178 184 197 208 213 226 239 249 255 247 235 186 191 214 227 234 243 256 263 176 165 197 261 226
272 303 333 41 124 148 178 174 168 175 180 190 189 199 175 180 161 183 178 159 189 204 193 152 162 188 185 206 218 219 234 240 244 251 251 228 232 222 223 237 232 182 159 213 246 65 154
247 267 324 347 72 125 143 153 164 171 181 187 163 179 179 179 156 188 188 194 199 216 235 196 236 163 199 214 213 215 221 240 229 245 213 245 228 247 218 263 118 180 202 186 179 184 173